[keps] orb12202.amsat

Ray Hoad ray.hoad at mypbmail.com
Fri Jul 20 18:07:22 PDT 2012


SB KEPS @ AMSAT  $ORB12202.O
Orbital Elements  12202.OSCAR

HR AMSAT ORBITAL ELEMENTS FOR OSCAR SATELLITES
FROM WA5QGD FORT WORTH,TX July 20, 2012
Send SUBSCRIBE KEPS/UNSUBSCRIBE KEPS to majordomo at amsat.org only
BID: ORB12202.O
TO ALL RADIO AMATEURS BT

Satellite: AO-07
Catalog number: 07530
Epoch time:      12201.62616761
Element set:     434
Inclination:      101.4038 deg
RA of node:       197.5860 deg
Eccentricity:    0.0011582
Arg of perigee:   218.7615 deg
Mean anomaly:     141.2625 deg
Mean motion:   12.53590272 rev/day
Decay rate:       -2.7e-07 rev/day^2
Epoch rev:           72411
Checksum:              267

Satellite: FO-29
Catalog number: 24278
Epoch time:      12201.87049254
Element set:    0900
Inclination:      098.5861 deg
RA of node:       298.2513 deg
Eccentricity:    0.0349995
Arg of perigee:   304.8441 deg
Mean anomaly:     052.0244 deg
Mean motion:   13.52985103 rev/day
Decay rate:       -2.7e-07 rev/day^2
Epoch rev:           78637
Checksum:              324

Satellite: SO-33
Catalog number: 25509
Epoch time:      12201.89954958
Element set:    0281
Inclination:      031.4294 deg
RA of node:       148.5631 deg
Eccentricity:    0.0352300
Arg of perigee:   129.6238 deg
Mean anomaly:     233.6017 deg
Mean motion:   14.28792234 rev/day
Decay rate:       1.75e-06 rev/day^2
Epoch rev:           71733
Checksum:              304

Satellite: RS-22
Catalog number: 27939
Epoch time:      12202.69108904
Element set:     555
Inclination:      097.8101 deg
RA of node:       041.7851 deg
Eccentricity:    0.0013842
Arg of perigee:   154.5389 deg
Mean anomaly:     205.6501 deg
Mean motion:   14.64071857 rev/day
Decay rate:       2.87e-06 rev/day^2
Epoch rev:           47078
Checksum:              313

Satellite: VO-52
Catalog number: 28650
Epoch time:      12201.64364642
Element set:    0159
Inclination:      097.5963 deg
RA of node:       231.0093 deg
Eccentricity:    0.0025177
Arg of perigee:   295.8719 deg
Mean anomaly:     063.9912 deg
Mean motion:   14.83054690 rev/day
Decay rate:      1.165e-05 rev/day^2
Epoch rev:           38978
Checksum:              331

Satellite: HO-68
Catalog number: 36122
Epoch time:      12202.73471645
Element set:     663
Inclination:      100.3600 deg
RA of node:       261.4026 deg
Eccentricity:    0.0007704
Arg of perigee:   035.5896 deg
Mean anomaly:     324.5738 deg
Mean motion:   13.16296872 rev/day
Decay rate:       -4.4e-07 rev/day^2
Epoch rev:           12480
Checksum:              284

/EX
SB KEPS @ AMSAT  $ORB12202.D
Orbital Elements  12202.MICROS

HR AMSAT ORBITAL ELEMENTS FOR THE MICROSATS
FROM WA5QGD FORT WORTH,TX July 20, 2012
Send SUBSCRIBE KEPS/UNSUBSCRIBE KEPS to majordomo at amsat.org only
BID: ORB12202.D
TO ALL RADIO AMATEURS BT

Satellite: UO-11
Catalog number: 14781
Epoch time:      12201.76522033
Element set:    0942
Inclination:      097.9527 deg
RA of node:       260.9978 deg
Eccentricity:    0.0007894
Arg of perigee:   291.4702 deg
Mean anomaly:     068.5667 deg
Mean motion:   14.80497817 rev/day
Decay rate:       4.95e-06 rev/day^2
Epoch rev:           52475
Checksum:              343

Satellite: AO-16
Catalog number: 20439
Epoch time:      12201.85623339
Element set:     514
Inclination:      098.4326 deg
RA of node:       144.3184 deg
Eccentricity:    0.0011942
Arg of perigee:   063.3201 deg
Mean anomaly:     296.9201 deg
Mean motion:   14.32067279 rev/day
Decay rate:       1.07e-06 rev/day^2
Epoch rev:           17467
Checksum:              282

Satellite: LO-19
Catalog number: 20442
Epoch time:      12201.87428085
Element set:    0450
Inclination:      098.3975 deg
RA of node:       147.2271 deg
Eccentricity:    0.0012839
Arg of perigee:   055.5789 deg
Mean anomaly:     304.6603 deg
Mean motion:   14.32285122 rev/day
Decay rate:       1.81e-06 rev/day^2
Epoch rev:           17486
Checksum:              304

Satellite: AO-27
Catalog number: 22825
Epoch time:      12202.84400058
Element set:     154
Inclination:      098.5756 deg
RA of node:       145.1373 deg
Eccentricity:    0.0008475
Arg of perigee:   174.8024 deg
Mean anomaly:     185.3243 deg
Mean motion:   14.29472351 rev/day
Decay rate:       1.08e-06 rev/day^2
Epoch rev:           98128
Checksum:              299

Satellite: IO-26
Catalog number: 22826
Epoch time:      12201.85867016
Element set:     905
Inclination:      098.5694 deg
RA of node:       144.5289 deg
Eccentricity:    0.0008700
Arg of perigee:   172.0724 deg
Mean anomaly:     188.0594 deg
Mean motion:   14.29746850 rev/day
Decay rate:        9.0e-07 rev/day^2
Epoch rev:           98127
Checksum:              329

Satellite: GO-32
Catalog number: 25397
Epoch time:      12202.86053934
Element set:     828
Inclination:      098.3648 deg
RA of node:       179.9163 deg
Eccentricity:    0.0001416
Arg of perigee:   141.6691 deg
Mean anomaly:     218.4616 deg
Mean motion:   14.23283365 rev/day
Decay rate:       -4.4e-07 rev/day^2
Epoch rev:           72881
Checksum:              319

Satellite: NO-44
Catalog number: 26931
Epoch time:      12201.77778600
Element set:    0094
Inclination:      067.0515 deg
RA of node:       036.3442 deg
Eccentricity:    0.0007584
Arg of perigee:   258.3310 deg
Mean anomaly:     101.6956 deg
Mean motion:   14.29813160 rev/day
Decay rate:        6.2e-07 rev/day^2
Epoch rev:           56390
Checksum:              287

Satellite: SO-50
Catalog number: 27607
Epoch time:      12201.43148710
Element set:    0816
Inclination:      064.5553 deg
RA of node:       196.8084 deg
Eccentricity:    0.0081325
Arg of perigee:   242.2791 deg
Mean anomaly:     117.0031 deg
Mean motion:   14.72436005 rev/day
Decay rate:       5.03e-06 rev/day^2
Epoch rev:           51471
Checksum:              267

Satellite: CO-55
Catalog number: 27844
Epoch time:      12201.59237451
Element set:    0422
Inclination:      098.7028 deg
RA of node:       209.4992 deg
Eccentricity:    0.0010299
Arg of perigee:   124.8092 deg
Mean anomaly:     235.4049 deg
Mean motion:   14.21044622 rev/day
Decay rate:       2.10e-06 rev/day^2
Epoch rev:           46949
Checksum:              299

Satellite: CO-57
Catalog number: 27848
Epoch time:      12202.58763149
Element set:     371
Inclination:      098.7124 deg
RA of node:       209.8294 deg
Eccentricity:    0.0010364
Arg of perigee:   126.6996 deg
Mean anomaly:     233.5128 deg
Mean motion:   14.20793927 rev/day
Decay rate:       1.57e-06 rev/day^2
Epoch rev:           46957
Checksum:              342

Satellite: AO-51
Catalog number: 28375
Epoch time:      12201.50786094
Element set:    0321
Inclination:      098.1501 deg
RA of node:       165.2836 deg
Eccentricity:    0.0083485
Arg of perigee:   303.9482 deg
Mean anomaly:     055.3812 deg
Mean motion:   14.40966739 rev/day
Decay rate:       1.59e-06 rev/day^2
Epoch rev:           42342
Checksum:              307

Satellite: CP3
Catalog number: 31129
Epoch time:      12201.58413951
Element set:     216
Inclination:      097.8833 deg
RA of node:       207.4524 deg
Eccentricity:    0.0101554
Arg of perigee:   023.1559 deg
Mean anomaly:     337.4162 deg
Mean motion:   14.53132399 rev/day
Decay rate:       9.51e-06 rev/day^2
Epoch rev:           27868
Checksum:              294

Satellite: CO-65
Catalog number: 32785
Epoch time:      12201.69795178
Element set:    0367
Inclination:      097.7987 deg
RA of node:       261.9775 deg
Eccentricity:    0.0013788
Arg of perigee:   320.2254 deg
Mean anomaly:     039.7874 deg
Mean motion:   14.83063342 rev/day
Decay rate:       8.83e-06 rev/day^2
Epoch rev:           22858
Checksum:              365

Satellite: PRISM
Catalog number: 33493
Epoch time:      12202.83958089
Element set:     899
Inclination:      098.1746 deg
RA of node:       344.2138 deg
Eccentricity:    0.0018812
Arg of perigee:   183.8246 deg
Mean anomaly:     176.2820 deg
Mean motion:   14.84044342 rev/day
Decay rate:      2.468e-05 rev/day^2
Epoch rev:           18874
Checksum:              333

Satellite: SOHLA-1
Catalog number: 33496
Epoch time:      12201.91366196
Element set:    0790
Inclination:      098.1076 deg
RA of node:       313.4374 deg
Eccentricity:    0.0005747
Arg of perigee:   303.1550 deg
Mean anomaly:     056.9102 deg
Mean motion:   14.69999371 rev/day
Decay rate:       3.48e-06 rev/day^2
Epoch rev:           18705
Checksum:              312

Satellite: SO-67
Catalog number: 35870
Epoch time:      12202.87018946
Element set:     157
Inclination:      097.2302 deg
RA of node:       237.4337 deg
Eccentricity:    0.0003765
Arg of perigee:   067.3828 deg
Mean anomaly:     054.4337 deg
Mean motion:   15.24079770 rev/day
Decay rate:      3.932e-05 rev/day^2
Epoch rev:           15774
Checksum:              324

Satellite: TISAT-1
Catalog number: 36799
Epoch time:      12202.69412758
Element set:     175
Inclination:      098.0614 deg
RA of node:       279.2738 deg
Eccentricity:    0.0016333
Arg of perigee:   066.0437 deg
Mean anomaly:     294.2461 deg
Mean motion:   14.82067613 rev/day
Decay rate:      1.703e-05 rev/day^2
Epoch rev:           10945
Checksum:              310

Satellite: STUDSAT
Catalog number: 36801
Epoch time:      12201.89839087
Element set:    0435
Inclination:      098.0682 deg
RA of node:       279.3345 deg
Eccentricity:    0.0013612
Arg of perigee:   057.1823 deg
Mean anomaly:     303.0672 deg
Mean motion:   14.84606095 rev/day
Decay rate:      4.360e-05 rev/day^2
Epoch rev:           10937
Checksum:              298

Satellite: FO-69
Catalog number: 37227
Epoch time:      12179.46825757
Element set:    0219
Inclination:      071.9703 deg
RA of node:       289.2712 deg
Eccentricity:    0.0018108
Arg of perigee:   298.3339 deg
Mean anomaly:     061.6016 deg
Mean motion:   14.77092260 rev/day
Decay rate:       1.66e-06 rev/day^2
Epoch rev:           03761
Checksum:              323

